Location: Newark
(13.6797°N, 8.5297°E)
Time: 14:12:56
(UTC+00:00)

LightSail 2 - Pass Details

Date: 11 December 2019
Orbit: 704 x 719 km, 24.0° (Epoch: 24 January)

Event Time Altitude Azimuth Distance (km) Brightness Sun altitude
Rises 18:32:57 0° 289° (WNW) 3,095 9.2 -22.1°
Reaches altitude 10° 18:35:24 10° 288° (WNW) 2,173 8.3 -22.6°
Maximum altitude 18:40:32 78° 203° (SSW) 722 5.1 -23.8°
Enters shadow 18:41:35 56° 132° (SE) 834 5.2 -24.0°
